Location: Newark
(16.3678°N, 77.8722°E)
Time: 00:20:21
(UTC+00:00)

S-56A Canister/Altair - Pass Details

Date: 12 December 2019
Orbit: 634 x 2498 km, 38.9° (Epoch: 22 January)

Event Time Altitude Azimuth Distance (km) Brightness Sun altitude
Rises 13:27:30 0° 290° (WNW) 5,318 12.7 -16.5°
Reaches altitude 10° 13:32:29 10° 276° (W) 3,956 12.1 -17.6°
Maximum altitude 13:39:12 20° 233° (SW) 2,682 11.1 -19.1°
Drops below altitude 10° 13:44:25 10° 187° (S) 2,953 10.8 -20.3°
Sets 13:47:31 0° 170° (S) 3,644 11.1 -21.0°
